Fairfield, OH

5:01 AM EST on February 28, 2017 (GMT -0500)
Butler County Regional

Weather History for KHAO - July, 2013

Change the Weather History Date:

Tuesday, July 23, 2013

  Actual Average (KLUK) Record (KLUK)
Temperature  
Mean Temperature 78 °F -  
Max Temperature 90 °F 87 °F 100 °F (1983)
Min Temperature 66 °F 67 °F 57 °F (2000)
Cooling Degree Days 12    
Growing Degree Days 28 (Base 50)    
Moisture  
Dew Point 69 °F    
Average Humidity 90    
Maximum Humidity 100    
Minimum Humidity 57    
Precipitation  
Precipitation 1.82 in - - ()
Sea Level Pressure  
Sea Level Pressure 29.81 in    
Wind  
Wind Speed 2 mph (West)    
Max Wind Speed 24 mph    
Max Gust Speed 34 mph    
Visibility 4 miles    
Events Fog , Rain , Thunderstorm    
Averages and records for this station are not official NWS values.
T = Trace of Precipitation, MM = Missing Value Source: NWS Daily Summary

Daily Weather History Graph

Daily Weather History Graph

Search for Another Location

Airport or City:

Trip Planner

Search our weather history database for the weather conditions in past years. The results will help you decide how hot, cold, wet, or windy it might be!

Date:

Astronomy

Jul. 23, 2013 Rise Set
Actual Time 6:30 AM EDT 8:58 PM EDT
Civil Twilight 5:59 AM EDT 9:29 PM EDT
Nautical Twilight 5:21 AM EDT 10:06 PM EDT
Astronomical Twilight 4:39 AM EDT 10:49 PM EDT
Moon 9:26 PM EDT (7/23) 7:37 AM EDT (7/23)
Length of Visible Light 15h 29m
Length of Day
14h 28m
Full, 99% of the Moon is Illuminated
Jul 23
Full
Jul 29
Last Quarter
Aug 6
New
Aug 14
First Quarter
Aug 20
Full

Hourly Weather History & Observations

Time (EDT) Temp. Heat Index Dew Point Humidity Pressure Visibility Wind Dir Wind Speed Gust Speed Precip Events Conditions
12:39 AM 69.8 °F - 68.0 °F 94% 29.84 in 1.8 mi Calm Calm - N/A   Clear
12:41 AM 69.8 °F - 68.0 °F 94% 29.84 in 0.8 mi Calm Calm - N/A   Clear
12:51 AM 69.8 °F - 68.0 °F 94% 29.83 in 0.5 mi Calm Calm - N/A Fog Fog
12:53 AM 69.1 °F - 68.0 °F 96% 29.82 in 0.5 mi Calm Calm - N/A Fog Fog
12:57 AM 69.8 °F - 68.0 °F 94% 29.84 in 1.2 mi Calm Calm - N/A   Scattered Clouds
1:09 AM 69.8 °F - 68.0 °F 94% 29.84 in 2.0 mi Calm Calm - N/A   Scattered Clouds
1:12 AM 69.8 °F - 68.0 °F 94% 29.84 in 1.8 mi Calm Calm - N/A   Mostly Cloudy
1:21 AM 68.0 °F - 68.0 °F 100% 29.84 in 3.0 mi Calm Calm - N/A   Mostly Cloudy
1:31 AM 69.8 °F - 68.0 °F 94% 29.84 in 2.5 mi Calm Calm - N/A   Overcast
1:38 AM 69.8 °F - 68.0 °F 94% 29.84 in 4.0 mi Calm Calm - N/A   Overcast
1:48 AM 69.8 °F - 68.0 °F 94% 29.84 in 2.0 mi Calm Calm - N/A   Overcast
1:53 AM 70.0 °F - 69.1 °F 97% 29.83 in 3.0 mi Calm Calm - N/A   Overcast
1:56 AM 71.6 °F - 69.8 °F 94% 29.85 in 1.8 mi Calm Calm - N/A   Overcast
2:00 AM 71.6 °F - 69.8 °F 94% 29.84 in 0.8 mi Calm Calm - N/A   Overcast
2:53 AM 71.1 °F - 71.1 °F 100% 29.84 in 0.5 mi Calm Calm - N/A Fog Fog
3:53 AM 70.0 °F - 70.0 °F 100% 29.83 in 0.5 mi Calm Calm - N/A Fog Fog
4:35 AM 68.0 °F - 68.0 °F 100% 29.84 in 0.8 mi Calm Calm - N/A   Clear
4:53 AM 68.0 °F - 66.9 °F 96% 29.83 in 0.8 mi Calm Calm - N/A   Clear
5:04 AM 66.2 °F - 66.2 °F 100% 29.84 in 1.2 mi Calm Calm - 0.01 in   Clear
5:08 AM 66.2 °F - 66.2 °F 100% 29.83 in 2.0 mi Calm Calm - 0.01 in   Clear
5:25 AM 68.0 °F - 66.2 °F 94% 29.84 in 2.5 mi Calm Calm - 0.01 in   Scattered Clouds
5:33 AM 66.2 °F - 66.2 °F 100% 29.83 in 1.8 mi Calm Calm - 0.01 in   Mostly Cloudy
5:46 AM 68.0 °F - 66.2 °F 94% 29.83 in 0.8 mi Calm Calm - 0.01 in   Overcast
5:53 AM 68.0 °F - 66.9 °F 96% 29.82 in 0.8 mi Calm Calm - 0.01 in   Mostly Cloudy
6:03 AM 66.2 °F - 66.2 °F 100% 29.84 in 1.2 mi Calm Calm - N/A   Scattered Clouds
6:19 AM 66.2 °F - 66.2 °F 100% 29.83 in 0.8 mi Calm Calm - N/A   Mist
6:53 AM 66.9 °F - 66.0 °F 97% 29.82 in 0.2 mi Calm Calm - N/A Fog Fog
6:58 AM 66.2 °F - 66.2 °F 100% 29.83 in 1.8 mi Calm Calm - N/A   Scattered Clouds
7:03 AM 66.2 °F - 66.2 °F 100% 29.84 in 3.0 mi Calm Calm - N/A   Partly Cloudy
7:15 AM 68.0 °F - 68.0 °F 100% 29.83 in 2.5 mi Calm Calm - N/A   Clear
7:42 AM 69.8 °F - 69.8 °F 100% 29.83 in 3.0 mi Calm Calm - N/A   Clear
7:53 AM 71.1 °F - 70.0 °F 96% 29.82 in 3.0 mi Calm Calm - N/A   Clear
8:53 AM 75.0 °F - 71.1 °F 87% 29.81 in 9.0 mi Calm Calm - N/A   Clear
9:53 AM 78.1 °F - 72.0 °F 81% 29.81 in 10.0 mi SW 8.1 mph - N/A   Clear
10:53 AM 82.0 °F 87.4 °F 73.0 °F 74% 29.82 in 10.0 mi Variable 4.6 mph - N/A   Clear
11:53 AM 84.0 °F 91.2 °F 73.9 °F 72% 29.82 in 10.0 mi Variable 5.8 mph - N/A   Scattered Clouds
12:53 PM 86.0 °F 93.8 °F 73.9 °F 67% 29.81 in 10.0 mi SSW 5.8 mph - N/A   Mostly Cloudy
1:53 PM 87.1 °F 94.5 °F 73.0 °F 63% 29.78 in 10.0 mi SW 8.1 mph 18.4 mph N/A Thunderstorm Mostly Cloudy
2:13 PM 87.8 °F 93.8 °F 71.6 °F 58% 29.79 in 10.0 mi WSW 8.1 mph 17.3 mph N/A   Scattered Clouds
2:53 PM 89.1 °F 96.0 °F 72.0 °F 57% 29.75 in 10.0 mi West 9.2 mph - N/A   Scattered Clouds
3:16 PM 89.6 °F 98.2 °F 73.4 °F 59% 29.77 in 10.0 mi WSW 9.2 mph - N/A Thunderstorm Scattered Clouds
3:53 PM 77.0 °F - 66.9 °F 71% 29.78 in 10.0 mi NNE 13.8 mph 17.3 mph 0.00 in Thunderstorm Thunderstorm
4:26 PM 75.2 °F - 66.2 °F 73% 29.82 in 1.0 mi WNW 19.6 mph 33.4 mph 0.18 in Rain , Thunderstorm Light Thunderstorms and Rain
4:32 PM 71.6 °F - 66.2 °F 83% 29.83 in 0.5 mi NW 24.2 mph 33.4 mph 0.37 in Rain , Thunderstorm Heavy Thunderstorms and Rain
4:53 PM 69.1 °F - 66.9 °F 93% 29.81 in 0.2 mi SW 12.7 mph 34.5 mph 1.10 in Fog , Rain , Thunderstorm Heavy Thunderstorms and Rain
5:00 PM 69.8 °F - 68.0 °F 94% 29.81 in 0.5 mi SW 15.0 mph 27.6 mph 0.10 in Fog , Rain , Thunderstorm Heavy Thunderstorms and Rain
5:21 PM 71.6 °F - 71.6 °F 100% 29.79 in 1.0 mi Variable 4.6 mph - 0.55 in Rain , Thunderstorm Heavy Thunderstorms and Rain
5:24 PM 73.4 °F - 73.4 °F 100% 29.79 in 2.0 mi Calm Calm - 0.55 in Rain , Thunderstorm Rain
5:29 PM 73.4 °F - 73.4 °F 100% 29.78 in 8.0 mi Calm Calm - 0.55 in Rain Light Rain
5:53 PM 75.9 °F - 75.0 °F 97% 29.76 in 10.0 mi Variable 3.5 mph - 0.55 in   Clear
6:53 PM 80.1 °F 83.8 °F 72.0 °F 76% 29.75 in 10.0 mi Variable 3.5 mph - N/A   Clear
7:53 PM 78.1 °F - 72.0 °F 81% 29.73 in 10.0 mi Calm Calm - N/A   Clear
8:00 PM 77.0 °F - 73.4 °F 89% 29.75 in 10.0 mi SW 3.5 mph - N/A Thunderstorm Clear
8:21 PM 75.2 °F - 73.4 °F 94% 29.76 in 1.8 mi NNW 6.9 mph - 0.12 in Rain , Thunderstorm Heavy Thunderstorms and Rain
8:32 PM 75.2 °F - 71.6 °F 89% 29.76 in 3.0 mi Variable 3.5 mph - 0.16 in Rain , Thunderstorm Light Rain
8:53 PM 73.9 °F - 70.0 °F 87% 29.75 in 10.0 mi Calm Calm - 0.16 in Thunderstorm Scattered Clouds
9:02 PM 73.4 °F - 71.6 °F 94% 29.78 in 10.0 mi Calm Calm - N/A   Scattered Clouds
9:53 PM 73.0 °F - 71.1 °F 93% 29.79 in 10.0 mi Calm Calm - N/A   Mostly Cloudy
10:53 PM 73.0 °F - 68.0 °F 84% 29.83 in 10.0 mi NNW 8.1 mph - N/A   Partly Cloudy
11:53 PM 71.1 °F - 64.9 °F 81% 29.83 in 10.0 mi North 5.8 mph - N/A   Clear